This demonstration page uses our WeatherBlox Daily Observations layout. Learn more.

Left ArrowRight Arrow

Hourly Observations for March 9, 2021

Temp ( °F °C ) Dew Point ( °F °C ) Humidity (%) Winds ( mph kmh ) Pressure ( in mb ) Visibility ( mi km ) Precip ( " mm )
12:51 am 00:51 Clear 56 13.3 18 -7.8 22 22 NNW 5 7 29.97 1015 10 16 N/A
1:51 am 01:51 Clear 55 12.8 18 -7.8 23 23 ESE 5 7 29.96 1014 10 16 N/A
2:51 am 02:51 Mostly Cloudy 56 13.3 19 -7.2 24 24 E 7 11 29.93 1013 10 16 N/A
3:51 am 03:51 Mostly Clear 57 13.9 19 -7.2 23 23 WSW 6 9 29.92 1013 10 16 N/A
4:51 am 04:51 Clear 57 13.9 19 -7.2 23 23 N N/A 29.91 1013 10 16 N/A
5:51 am 05:51 Clear 56 13.3 19 -7.2 24 24 S 7 11 29.94 1014 10 16 N/A
6:51 am 06:51 Sunny 53 11.7 19 -7.2 26 26 NNE 3 6 29.95 1014 10 16 N/A
7:51 am 07:51 Sunny 56 13.3 20 -6.7 24 24 SE 3 6 29.96 1015 10 16 N/A
8:51 am 08:51 Sunny 60 15.6 20 -6.7 21 21 ESE 3 6 29.96 1015 10 16 N/A
9:51 am 09:51 Sunny 66 18.9 19 -7.2 16 16 SW 6 9 29.96 1015 10 16 N/A
10:51 am 10:51 Sunny 71 21.7 21 -6.1 15 15 WNW 14 22 29.96 1014 10 16 N/A
11:51 am 11:51 Partly Cloudy 69 20.6 24 -4.4 18 18 NW 23 37 29.97 1015 10 16 N/A
12:51 pm 12:51 Partly Cloudy 72 22.2 24 -4.4 17 17 VRB 7 11 29.90 1013 10 16 N/A
1:51 pm 13:51 Mostly Cloudy 72 22.2 26 -3.3 18 18 SW 12 19 29.88 1012 10 16 N/A
2:51 pm 14:51 Cloudy 73 22.8 31 -0.6 21 21 W 7 11 29.85 1011 10 16 N/A
3:51 pm 15:51 Mostly Cloudy 73 22.8 32 undefined 22 22 SSW 8 13 29.83 1010 10 16 N/A
4:51 pm 16:51 Mostly Cloudy 73 22.8 30 -1.1 20 20 WSW 23 37 29.80 1009 10 16 N/A
5:51 pm 17:51 Mostly Sunny 72 22.2 28 -2.2 19 19 W 17 28 29.80 1009 10 16 N/A
6:51 pm 18:51 Clear 69 20.6 23 -5 17 17 WSW 17 28 29.84 1010 10 16 N/A
7:51 pm 19:51 Clear 66 18.9 15 -9.4 14 14 WSW 15 24 29.86 1011 10 16 N/A
8:51 pm 20:51 Clear 61 16.1 22 -5.6 22 22 WNW 20 31 29.87 1012 10 16 N/A
9:51 pm 21:51 Clear 60 15.6 27 -2.8 28 28 NW 23 37 29.88 1012 10 16 N/A
10:51 pm 22:51 Clear 58 14.4 25 -3.9 28 28 NW 20 31 29.90 1012 10 16 N/A
11:51 pm 23:51 Clear 55 12.8 23 -5 29 29 NW 14 22 29.92 1013 10 16 N/A

Powered by AerisWeather